Flag for Canada Weather past 2 weeks in Maple Ridge, British Columbia, Canada

Now
64 °F

Mild.


Feels Like: 64 °F
Forecast: 50 / 77 °F
Wind: 5 mph from Northeast

Location: P. Meadows Coastal Station

Current Time: Sep 19, 2014 at 6:02:10 PM

Latest Report: Sep 19, 2014 at 5:00 PM


Visibility: N/A

Pressure: 30.11 "Hg

Humidity: 90%

Dew point: 62 °F

Location of Maple RidgeLocation

Historic Weather in Maple Ridge — Graph

°F

Maple Ridge temperature yesterday

Maximum temperature yesterday: 65 °F (at 2:00 PM)
Minimum temperature yesterday: 59 °F (at 3:00 AM)
Average temperature yesterday: 61 °F

Past Weeks' High & Low Weather Summary

 TemperatureHumidityPressure
High87 °F (Sep 15, 4:00 PM)100% (Sep 15, 7:00 AM)30.34 "Hg (Sep 15, 7:00 AM)
Low43 °F (Sep 12, 7:00 AM)17% (Sep 10, 5:00 PM)29.70 "Hg (Sep 17, 7:00 PM)
Average63 °F69%29.97 "Hg
* Reported Sep 4 5:00 PM — Sep 19 5:00 PM, Maple Ridge, Weather by CustomWeather, © 2014

Note: Actual official high and low records may vary slightly from our data, if they occured in-between our weather recording intervals... More about our weather records

Advertising

Maple Ridge weather history for previous 24 hours

 ConditionsComfort  
Time TempWeatherWind HumidityBarometerVisibility
5:00 PM
Sep 19
64 °FMild.5 mph90%30.11 "HgN/A
4:00 PM63 °FMild.3 mph90%30.11 "HgN/A
3:00 PM63 °FMild.5 mph93%30.11 "HgN/A
2:00 PM63 °FMild.2 mph92%30.11 "HgN/A
1:00 PM62 °FCool.3 mph96%30.12 "HgN/A
12:00 PM60 °FCool.2 mph96%30.11 "HgN/A
11:00 AM60 °FCool.5 mph96%30.10 "HgN/A
10:00 AM60 °FCool.2 mph96%30.08 "HgN/A
9:00 AM60 °FCool.3 mph96%30.05 "HgN/A
8:00 AM58 °FCool.3 mph100%30.03 "HgN/A
7:00 AM60 °FCool.2 mph96%30.01 "HgN/A
6:00 AM60 °FCool.2 mph96%29.99 "HgN/A
5:00 AM60 °FCool.3 mph97%29.98 "HgN/A
4:00 AM58 °FCool.2 mph100%29.98 "HgN/A
3:00 AM60 °FCool.1 mph96%29.97 "HgN/A
2:00 AM59 °FCool.2 mph96%29.96 "HgN/A
1:00 AM58 °FCool.2 mph100%29.95 "HgN/A
12:00 AM60 °FCool.1 mph96%29.94 "HgN/A
11:00 PM
Sep 18
61 °FCool.No wind96%29.93 "HgN/A
10:00 PM60 °FCool.No wind97%29.92 "HgN/A
9:00 PM61 °FCool.1 mph96%29.91 "HgN/A
8:00 PM62 °FCool.1 mph94%29.88 "HgN/A
7:00 PM62 °FCool.1 mph93%29.86 "HgN/A
6:00 PM62 °FCool.No wind92%29.86 "HgN/A
Weather by CustomWeather, © 2014

See weather overviewHow to use our weather pages